Location: Glencliff
(36.1226°N, 86.7183°W)
Time: 06:15:00
(UTC+00:00)

Cosmos 2285 Rocket - Pass Details

Date: 25 August 2019
Orbit: 970 x 999 km, 74.0° (Epoch: 16 September)

Event Time Altitude Azimuth Distance (km) Brightness Sun altitude
Rises 09:20:50 0° 340° (NNW) 3,706 7.2 -21.6°
Reaches altitude 10° 09:23:23 10° 338° (NNW) 2,758 6.5 -21.1°
Maximum altitude 09:29:46 74° 255° (WSW) 1,035 3.9 -20.1°
Drops below altitude 10° 09:36:09 10° 172° (S) 2,756 6.2 -18.9°
Sets 09:38:42 0° 170° (S) 3,703 6.8 -18.5°
